Location: Unspecified
(0.0000°N, 0.0000°E)
Time: 10:09:34
(UTC+00:00)

ARIANE 1 DEB - Pass Details

Date: 19 February 2026
Orbit: 1090 x 21662 km, 16.1° (Epoch: 9 December)

Event Time Altitude Azimuth Distance (km) Brightness Sun altitude
Rises 16:42:55 0° 290° (WNW) 5,329 ? 22.3°
Reaches altitude 10° 16:45:06 10° 292° (WNW) 4,813 ? 21.7°
Maximum altitude 17:00:37 83° 21° (NNE) 5,196 ? 17.9°
Drops below altitude 10° 21:32:57 10° 106° (ESE) 19,909 ? -48.6°
Sets 21:55:32 0° 103° (ESE) 17,711 ? -53.9°
